Location: Maiden
(35.5760°N, 81.2120°W)
Time: 21:53:30
(UTC-04:00)

A-11 Canister half - Pass Details

Date: 10 August 2020
Orbit: 1514 x 1686 km, 47.2° (Epoch: 26 September)

Event Time Altitude Azimuth Distance (km) Brightness Sun altitude
Rises 01:19:21 0° 304° (WNW) 4,883 12.0 -38.9°
Reaches altitude 10° 01:22:28 10° 304° (NW) 3,911 11.4 -39.0°
Enters shadow 01:31:26 74° 297° (WNW) 1,734 9.1 -39.0°
